| time (UTC) | temp C | wind direction | speed KPH | gust KPH | rain 1hr cm | rain 24hr cm | rain mn cm | humidity % | barometer mb |
| 20260906190205 | 21 | 325 | 0.0 | 6.4 | 0.00 | 1.24 | 0.43 | 50 | 1017.9 |
| 20260906185221 | 22 | 308 | 6.4 | 11.3 | 0.00 | 1.24 | 0.43 | 51 | 1017.8 |
| 20260906184303 | 21 | 5 | 4.8 | 8.0 | 0.00 | 1.24 | 0.43 | 52 | 1018.1 |
| 20260906182306 | 20 | 349 | 6.4 | 12.9 | 0.00 | 1.24 | 0.43 | 54 | 1018.3 |
| 20260906181320 | 21 | 337 | 1.6 | 4.8 | 0.00 | 1.24 | 0.43 | 56 | 1018.3 |
| 20260906180305 | 20 | 344 | 4.8 | 14.5 | 0.00 | 1.24 | 0.43 | 57 | 1018.4 |
| 20260906175405 | 20 | 180 | 3.2 | 6.4 | 0.00 | 1.24 | 0.43 | 59 | 1018.3 |
| 20260906174404 | 21 | 180 | 4.8 | 6.4 | 0.00 | 1.24 | 0.43 | 63 | 1018.4 |
| 20260906173306 | 20 | 212 | 1.6 | 6.4 | 0.00 | 1.24 | 0.43 | 66 | 1018.4 |
| 20260906172405 | 20 | 338 | 4.8 | 9.7 | 0.00 | 1.24 | 0.43 | 66 | 1018.6 |
| 20260906171422 | 19 | 298 | 4.8 | 9.7 | 0.00 | 1.24 | 0.43 | 66 | 1018.9 |
| 20260906165603 | 18 | 311 | 1.6 | 4.8 | 0.00 | 1.24 | 0.43 | 71 | 1018.8 |
| 20260906164607 | 18 | 328 | 3.2 | 6.4 | 0.00 | 1.24 | 0.43 | 74 | 1018.8 |
| 20260906162705 | 17 | 328 | 1.6 | 4.8 | 0.00 | 1.24 | 0.43 | 77 | 1019.3 |
| 20260906162620 | 17 | 290 | 3.2 | 4.8 | 0.00 | 1.24 | 0.43 | 78 | 1019.4 |
| 20260906161705 | 17 | 327 | 1.6 | 8.0 | 0.00 | 1.24 | 0.43 | 79 | 1019.5 |
| 20260906160804 | 16 | 252 | 1.6 | 6.4 | 0.00 | 1.24 | 0.43 | 81 | 1019.6 |
| 20260906154804 | 17 | 322 | 4.8 | 6.4 | 0.00 | 1.24 | 0.43 | 78 | 1019.5 |
| 20260906154719 | 17 | 274 | 1.6 | 4.8 | 0.00 | 1.24 | 0.43 | 78 | 1019.5 |
| 20260906152804 | 17 | 292 | 1.6 | 3.2 | 0.00 | 1.24 | 0.43 | 77 | 1019.5 |
| 20260906151805 | 18 | 225 | 1.6 | 3.2 | 0.00 | 1.24 | 0.43 | 75 | 1019.4 |
| 20260906150904 | 18 | 178 | 1.6 | 4.8 | 0.00 | 1.24 | 0.43 | 76 | 1019.5 |
| 20260906144920 | 17 | 315 | 0.0 | 0.0 | 0.00 | 1.24 | 0.43 | 83 | 1019.5 |
| 20260906144805 | 17 | 315 | 0.0 | 0.0 | 0.00 | 1.24 | 0.43 | 84 | 1019.6 |
| 20260906143804 | 16 | 20 | 1.6 | 3.2 | 0.00 | 1.24 | 0.43 | 86 | 1019.9 |
| 20260906143706 | 16 | 337 | 0.0 | 3.2 | 0.00 | 1.24 | 0.43 | 85 | 1019.8 |
| 20260906142704 | 16 | 337 | 0.0 | 0.0 | 0.00 | 1.24 | 0.43 | 88 | 1019.9 |
| 20260906142605 | 16 | 337 | 0.0 | 0.0 | 0.00 | 1.24 | 0.43 | 88 | 1019.8 |
| 20260906141704 | 15 | 273 | 0.0 | 4.8 | 0.00 | 1.24 | 0.43 | 89 | 1020.0 |
| 20260906140803 | 15 | 337 | 0.0 | 3.2 | 0.00 | 1.24 | 0.43 | 89 | 1019.9 |
| 20260906135804 | 15 | 311 | 1.6 | 6.4 | 0.00 | 1.24 | 0.43 | 90 | 1020.0 |
| 20260906134819 | 15 | 314 | 1.6 | 6.4 | 0.00 | 1.24 | 0.43 | 88 | 1019.9 |
| 20260906133905 | 14 | 337 | 0.0 | 0.0 | 0.00 | 1.24 | 0.43 | 88 | 1019.9 |
| 20260906132905 | 13 | 320 | 3.2 | 4.8 | 0.00 | 1.24 | 0.43 | 86 | 1019.7 |
| 20260906131803 | 13 | 315 | 3.2 | 4.8 | 0.00 | 1.24 | 0.43 | 86 | 1019.9 |
| 20260906130804 | 13 | 315 | 0.0 | 0.0 | 0.00 | 1.24 | 0.43 | 85 | 1020.0 |
| 20260906130705 | 13 | 315 | 0.0 | 0.0 | 0.00 | 1.24 | 0.43 | 85 | 1019.9 |
| 20260906125721 | 13 | 337 | 0.0 | 3.2 | 0.00 | 1.24 | 0.43 | 85 | 1020.2 |
| 20260906123903 | 13 | 337 | 0.0 | 1.6 | 0.00 | 1.24 | 0.43 | 85 | 1020.1 |
| 20260906123804 | 13 | 337 | 1.6 | 3.2 | 0.00 | 1.24 | 0.43 | 85 | 1020.1 |
| 20260906122704 | 13 | 337 | 0.0 | 0.0 | 0.00 | 1.24 | 0.43 | 85 | 1020.0 |
| 20260906122605 | 13 | 337 | 0.0 | 0.0 | 0.00 | 1.24 | 0.43 | 85 | 1020.0 |
| 20260906121703 | 13 | 337 | 0.0 | 0.0 | 0.03 | 1.24 | 0.43 | 84 | 1020.0 |
| 20260906120703 | 13 | 337 | 0.0 | 0.0 | 0.03 | 1.24 | 0.43 | 84 | 1019.9 |
| 20260906115720 | 12 | 337 | 0.0 | 1.6 | 0.03 | 1.24 | 0.43 | 85 | 1019.8 |
| 20260906115622 | 12 | 337 | 1.6 | 3.2 | 0.03 | 1.24 | 0.43 | 85 | 1019.8 |
| 20260906113703 | 12 | 360 | 0.0 | 0.0 | 0.03 | 1.24 | 0.43 | 84 | 1019.6 |
| 20260906112707 | 12 | 360 | 0.0 | 0.0 | 0.03 | 1.24 | 0.43 | 85 | 1019.5 |
| 20260906110705 | 12 | 360 | 0.0 | 0.0 | 0.03 | 1.22 | 0.41 | 85 | 1019.3 |
| 20260906105804 | 12 | 360 | 0.0 | 0.0 | 0.05 | 1.22 | 0.41 | 86 | 1019.2 |
| 20260906104807 | 12 | 360 | 0.0 | 0.0 | 0.05 | 1.22 | 0.41 | 86 | 1019.0 |
| 20260906103903 | 12 | 360 | 0.0 | 0.0 | 0.05 | 1.22 | 0.41 | 85 | 1019.0 |
| 20260906102906 | 12 | 360 | 0.0 | 0.0 | 0.05 | 1.22 | 0.41 | 86 | 1018.8 |
| 20260906101905 | 13 | 360 | 0.0 | 1.6 | 0.05 | 1.22 | 0.41 | 85 | 1018.8 |
| 20260906101806 | 13 | 360 | 1.6 | 3.2 | 0.05 | 1.22 | 0.41 | 85 | 1018.8 |
| 20260906100804 | 13 | 22 | 0.0 | 0.0 | 0.03 | 1.19 | 0.38 | 85 | 1018.7 |
| 20260906095903 | 13 | 22 | 0.0 | 0.0 | 0.00 | 1.17 | 0.36 | 85 | 1018.6 |
| 20260906094903 | 12 | 22 | 0.0 | 0.0 | 0.00 | 1.17 | 0.36 | 86 | 1018.6 |
| 20260906094820 | 12 | 22 | 0.0 | 0.0 | 0.00 | 1.17 | 0.36 | 85 | 1018.6 |
| 20260906093904 | 12 | 22 | 0.0 | 0.0 | 0.03 | 1.17 | 0.36 | 86 | 1018.5 |
| 20260906093805 | 12 | 22 | 0.0 | 0.0 | 0.03 | 1.17 | 0.36 | 85 | 1018.5 |
| 20260906093706 | 12 | 22 | 0.0 | 0.0 | 0.03 | 1.17 | 0.36 | 85 | 1018.5 |
| 20260906092803 | 12 | 22 | 0.0 | 0.0 | 0.03 | 1.17 | 0.36 | 86 | 1018.4 |
| 20260906091902 | 12 | 22 | 0.0 | 0.0 | 0.03 | 1.17 | 0.36 | 85 | 1018.3 |
| 20260906090906 | 12 | 22 | 0.0 | 0.0 | 0.05 | 1.17 | 0.36 | 86 | 1018.0 |
| 20260906085920 | 13 | 22 | 0.0 | 0.0 | 0.05 | 1.17 | 0.36 | 86 | 1018.3 |
| 20260906084904 | 13 | 22 | 0.0 | 0.0 | 0.10 | 1.17 | 0.36 | 86 | 1018.1 |
| 20260906083906 | 13 | 22 | 0.0 | 0.0 | 0.10 | 1.14 | 0.33 | 86 | 1018.2 |
| 20260906082904 | 13 | 22 | 0.0 | 1.6 | 0.13 | 1.14 | 0.33 | 86 | 1018.0 |
| 20260906081904 | 13 | 22 | 0.0 | 0.0 | 0.13 | 1.14 | 0.33 | 86 | 1018.1 |
| 20260906080904 | 13 | 360 | 0.0 | 1.6 | 0.10 | 1.12 | 0.30 | 85 | 1018.2 |
| 20260906075904 | 13 | 360 | 0.0 | 0.0 | 0.13 | 1.12 | 0.30 | 86 | 1018.1 |
| 20260906074103 | 13 | 292 | 0.0 | 0.0 | 0.05 | 1.04 | 0.23 | 86 | 1018.0 |
| 20260906073118 | 13 | 292 | 0.0 | 0.0 | 0.03 | 1.02 | 0.20 | 85 | 1018.0 |
| 20260906072204 | 13 | 292 | 0.0 | 0.0 | 0.03 | 1.02 | 0.20 | 86 | 1017.8 |
| 20260906071204 | 13 | 292 | 0.0 | 0.0 | 0.03 | 1.02 | 0.20 | 85 | 1017.7 |
| 20260906071105 | 13 | 292 | 0.0 | 0.0 | 0.03 | 1.02 | 0.20 | 85 | 1017.7 |
| 20260906070118 | 13 | 292 | 0.0 | 0.0 | 0.00 | 0.99 | 0.18 | 86 | 1017.8 |
| 20260906064206 | 13 | 292 | 0.0 | 0.0 | 0.03 | 0.99 | 0.18 | 86 | 1017.6 |
| 20260906064105 | 13 | 292 | 0.0 | 0.0 | 0.03 | 0.99 | 0.18 | 86 | 1017.4 |
| 20260906063103 | 13 | 292 | 0.0 | 0.0 | 0.03 | 0.99 | 0.18 | 85 | 1017.7 |
| 20260906062104 | 13 | 292 | 0.0 | 0.0 | 0.03 | 0.99 | 0.18 | 85 | 1017.8 |
| 20260906061202 | 13 | 292 | 0.0 | 0.0 | 0.03 | 0.99 | 0.18 | 86 | 1017.7 |
| 20260906060204 | 13 | 292 | 0.0 | 0.0 | 0.03 | 0.99 | 0.18 | 85 | 1017.7 |
| 20260906060121 | 13 | 292 | 0.0 | 0.0 | 0.03 | 0.99 | 0.18 | 85 | 1017.7 |
| 20260906055119 | 13 | 298 | 0.0 | 1.6 | 0.03 | 0.99 | 0.18 | 85 | 1017.8 |
| 20260906054204 | 13 | 337 | 1.6 | 3.2 | 0.03 | 0.97 | 0.15 | 86 | 1017.7 |
| 20260906053120 | 13 | 337 | 0.0 | 0.0 | 0.03 | 0.97 | 0.15 | 86 | 1017.7 |
| 20260906052104 | 13 | 337 | 0.0 | 0.0 | 0.05 | 0.97 | 0.15 | 86 | 1017.8 |
| 20260906051204 | 13 | 337 | 0.0 | 0.0 | 0.08 | 0.97 | 0.15 | 86 | 1017.8 |
| 20260906050204 | 13 | 337 | 0.0 | 0.0 | 0.13 | 0.97 | 0.15 | 85 | 1017.8 |
| 20260906045205 | 13 | 337 | 0.0 | 0.0 | 0.15 | 0.97 | 0.15 | 85 | 1017.7 |
| 20260906044205 | 13 | 337 | 0.0 | 0.0 | 0.13 | 0.94 | 0.13 | 86 | 1017.8 |
| 20260906043205 | 13 | 337 | 0.0 | 0.0 | 0.13 | 0.94 | 0.13 | 85 | 1017.8 |
| 20260906042203 | 14 | 337 | 0.0 | 0.0 | 0.13 | 0.94 | 0.10 | 86 | 1017.9 |
| 20260906042104 | 14 | 337 | 0.0 | 0.0 | 0.10 | 0.91 | 0.10 | 86 | 1017.8 |
| 20260906041204 | 14 | 337 | 0.0 | 0.0 | 0.08 | 0.89 | 0.08 | 86 | 1017.8 |
| 20260906040303 | 13 | 315 | 0.0 | 0.0 | 0.05 | 0.84 | 0.03 | 86 | 1017.7 |
| 20260906035306 | -17 | 0 | 0.0 | 0.0 | 0.03 | 0.81 | 0.00 | 100 | |
| 20260906035204 | -17 | 0 | 0.0 | 0.0 | 0.03 | 0.81 | 0.00 | 100 | |
| 20260906034229 | 13 | 315 | 0.0 | 0.0 | 0.05 | 0.81 | 0.81 | 86 | 1017.6 |
| 20260906034146 | 13 | 315 | 0.0 | 0.0 | 0.05 | 0.81 | 0.81 | 86 | 1017.6 |
| 20260906031228 | 13 | 315 | 0.0 | 0.0 | 0.10 | 0.81 | 0.79 | 87 | 1017.3 |
| 20260906031145 | 14 | 315 | 0.0 | 0.0 | 0.08 | 0.79 | 0.79 | 87 | 1017.4 |
| 20260906031027 | 14 | 315 | 0.0 | 0.0 | 0.08 | 0.79 | 0.79 | 86 | 1017.4 |
| 20260906030028 | 14 | 315 | 0.0 | 0.0 | 0.08 | 0.79 | 0.79 | 87 | 1017.5 |
| 20260906025028 | 14 | 315 | 0.0 | 0.0 | 0.13 | 0.79 | 0.79 | 86 | 1017.6 |
| 20260906024030 | 14 | 315 | 0.0 | 0.0 | 0.10 | 0.76 | 0.76 | 87 | 1017.6 |
| 20260906023028 | 14 | 315 | 0.0 | 0.0 | 0.13 | 0.76 | 0.76 | 87 | 1017.7 |
| 20260906022029 | 14 | 315 | 0.0 | 0.0 | 0.10 | 0.71 | 0.71 | 87 | 1017.6 |
| 20260906021030 | 15 | 346 | 0.0 | 1.6 | 0.08 | 0.71 | 0.71 | 86 | 1017.6 |
| 20260906020028 | 15 | 270 | 0.0 | 0.0 | 0.10 | 0.71 | 0.71 | 86 | 1017.5 |
| 20260906013927 | 15 | 337 | 0.0 | 0.0 | 0.13 | 0.64 | 0.64 | 87 | 1017.5 |
| 20260906012944 | 15 | 360 | 0.0 | 1.6 | 0.23 | 0.64 | 0.64 | 88 | 1017.5 |
| 20260906011930 | 15 | 360 | 0.0 | 0.0 | 0.30 | 0.64 | 0.64 | 87 | 1017.6 |
| 20260906011827 | 15 | 360 | 0.0 | 0.0 | 0.33 | 0.64 | 0.64 | 88 | 1017.5 |
| 20260906010828 | 15 | 360 | 0.0 | 0.0 | 0.41 | 0.64 | 0.64 | 88 | 1017.5 |
| 20260906010729 | 15 | 360 | 0.0 | 0.0 | 0.43 | 0.64 | 0.64 | 88 | 1017.4 |
| 20260906005826 | 15 | 177 | 0.0 | 3.2 | 0.46 | 0.61 | 0.61 | 89 | 1017.4 |
| 20260906004828 | 15 | 360 | 0.0 | 0.0 | 0.46 | 0.56 | 0.56 | 89 | 1017.4 |
| 20260906003829 | 15 | 337 | 0.0 | 3.2 | 0.41 | 0.51 | 0.48 | 88 | 1017.1 |
| 20260906003746 | 15 | 337 | 3.2 | 6.4 | 0.38 | 0.48 | 0.48 | 89 | 1017.2 |
| 20260906000927 | 16 | 112 | 0.0 | 0.0 | 0.13 | 0.23 | 0.23 | 89 | 1016.8 |
| 20260906000830 | 16 | 112 | 0.0 | 0.0 | 0.13 | 0.23 | 0.20 | 89 | 1016.9 |
| 20260905235828 | 16 | 174 | 0.0 | 0.0 | 0.05 | 0.15 | 0.13 | 88 | 1016.6 |
| 20260905233844 | 16 | 180 | 0.0 | 0.0 | 0.00 | 0.10 | 0.10 | 88 | 1016.3 |
| 20260905232842 | 16 | 180 | 0.0 | 0.0 | 0.00 | 0.10 | 0.10 | 88 | 1016.2 |
| 20260905231828 | 16 | 180 | 0.0 | 0.0 | 0.00 | 0.10 | 0.10 | 86 | 1016.2 |
| 20260905230927 | 16 | 157 | 0.0 | 0.0 | 0.00 | 0.10 | 0.10 | 87 | 1016.1 |
| 20260905225929 | 17 | 157 | 0.0 | 0.0 | 0.00 | 0.10 | 0.10 | 86 | 1016.1 |
| 20260905225831 | 17 | 157 | 0.0 | 0.0 | 0.00 | 0.10 | 0.10 | 85 | 1016.0 |
| 20260905224828 | 17 | 157 | 0.0 | 1.6 | 0.00 | 0.10 | 0.10 | 85 | 1016.0 |
| 20260905224729 | 17 | 157 | 0.0 | 1.6 | 0.00 | 0.10 | 0.10 | 84 | 1016.0 |
| 20260905221827 | 18 | 145 | 4.8 | 11.3 | 0.00 | 0.10 | 0.10 | 78 | 1015.5 |
| 20260905220827 | 20 | 112 | 0.0 | 1.6 | 0.00 | 0.10 | 0.10 | 73 | 1015.4 |
| 20260905215829 | 21 | 337 | 0.0 | 3.2 | 0.00 | 0.10 | 0.10 | 71 | 1015.1 |
| 20260905214927 | 21 | 282 | 0.0 | 1.6 | 0.00 | 0.10 | 0.10 | 71 | 1014.8 |
| 20260905213928 | 21 | 360 | 0.0 | 0.0 | 0.00 | 0.10 | 0.10 | 71 | 1014.8 |
| 20260905212929 | 21 | 325 | 6.4 | 9.7 | 0.00 | 0.10 | 0.10 | 74 | 1014.5 |
| 20260905211945 | 21 | 22 | 1.6 | 3.2 | 0.00 | 0.10 | 0.10 | 78 | 1014.5 |
| 20260905210926 | 20 | 337 | 1.6 | 3.2 | 0.00 | 0.10 | 0.10 | 81 | 1014.5 |
| 20260905205928 | 20 | 307 | 0.0 | 3.2 | 0.03 | 0.10 | 0.10 | 83 | 1014.5 |
| 20260905203929 | 18 | 337 | 0.0 | 0.0 | 0.03 | 0.10 | 0.10 | 86 | 1014.6 |
| 20260905203845 | 18 | 337 | 0.0 | 0.0 | 0.03 | 0.10 | 0.10 | 85 | 1014.6 |
| 20260905202929 | 18 | 337 | 0.0 | 0.0 | 0.03 | 0.10 | 0.10 | 84 | 1014.5 |
| 20260905201928 | 18 | 337 | 0.0 | 0.0 | 0.03 | 0.10 | 0.10 | 82 | 1014.5 |
| 20260905200027 | 20 | 180 | 0.0 | 3.2 | 0.08 | 0.08 | 0.08 | 80 | 1014.1 |
| 20260905195027 | 20 | 112 | 0.0 | 0.0 | 0.08 | 0.08 | 0.08 | 84 | 1014.1 |
| 20260905194026 | 20 | 180 | 0.0 | 0.0 | 0.08 | 0.08 | 0.08 | 80 | 1014.1 |
| 20260905193044 | 20 | 180 | 0.0 | 0.0 | 0.08 | 0.08 | 0.08 | 77 | 1014.1 |
| 20260905192928 | 20 | 180 | 0.0 | 0.0 | 0.08 | 0.08 | 0.08 | 76 | 1014.1 |
| 20260905191929 | 21 | 180 | 0.0 | 0.0 | 0.08 | 0.08 | 0.08 | 69 | 1014.0 |